When you browse on this site, cookies collect data to enhance your experience and personalize the content and advertising you see.
Visit our Privacy Policy to learn more. By continuing to use the site, you agree to this use of cookies and data.
  • In Latvia
  • List of Countries
  • For 7 days
  • Water Temperature
  • Weather Map
  • Weather Widgets
  • user-avatar
    Login

    Hourly Weather Ahmatov

    Today, 17 August, Saturday

    Time Temperature Precipitation Wind Pressure Humidity
    00:00 +27°C° 0 mm 3 mps 758 mmHg 30%
    01:00 +26°C° 0 mm 3 mps 758 mmHg 31%
    02:00 +26°C° 0 mm 3 mps 758 mmHg 32%
    03:00 +25°C° 0 mm 3 mps 758 mmHg 32%
    04:00 +25°C° 0 mm 3 mps 758 mmHg 33%
    05:00 +25°C° 0 mm 3 mps 758 mmHg 35%
    06:00 +25°C° 0 mm 3 mps 758 mmHg 36%
    07:00 +27°C° 0 mm 3 mps 758 mmHg 32%
    08:00 +29°C° 0 mm 4 mps 758 mmHg 28%
    09:00 +33°C° 0 mm 5 mps 759 mmHg 25%
    10:00 +34°C° 0 mm 6 mps 759 mmHg 22%
    11:00 +35°C° 0 mm 6 mps 758 mmHg 20%
    12:00 +36°C° 0 mm 7 mps 758 mmHg 17%
    13:00 +36°C° 0 mm 6 mps 758 mmHg 17%
    14:00 +38°C° 0 mm 6 mps 758 mmHg 17%
    15:00 +38°C° 0 mm 6 mps 758 mmHg 17%
    16:00 +36°C° 0 mm 5 mps 757 mmHg 18%
    17:00 +35°C° 0 mm 4 mps 757 mmHg 19%
    18:00 +35°C° 0 mm 4 mps 757 mmHg 20%
    19:00 +34°C° 0 mm 4 mps 757 mmHg 21%
    20:00 +32°C° 0 mm 4 mps 757 mmHg 21%
    21:00 +30°C° 0 mm 4 mps 758 mmHg 22%
    22:00 +29°C° 0 mm 3 mps 758 mmHg 23%
    23:00 +28°C° 0 mm 3 mps 758 mmHg 24%

    Tomorrow, 18 August, Sunday

    Time Temperature Precipitation Wind Pressure Humidity
    00:00 +27°C° 0 mm 3 mps 758 mmHg 25%
    01:00 +27°C° 0 mm 3 mps 758 mmHg 27%
    02:00 +26°C° 0 mm 3 mps 758 mmHg 28%
    03:00 +25°C° 0 mm 3 mps 758 mmHg 29%
    04:00 +26°C° 0 mm 3 mps 759 mmHg 29%
    05:00 +26°C° 0 mm 3 mps 759 mmHg 29%
    06:00 +26°C° 0 mm 3 mps 759 mmHg 30%
    07:00 +28°C° 0 mm 4 mps 759 mmHg 26%
    08:00 +32°C° 0 mm 5 mps 759 mmHg 23%
    09:00 +34°C° 0 mm 6 mps 759 mmHg 19%
    10:00 +35°C° 0 mm 6 mps 759 mmHg 18%
    11:00 +36°C° 0 mm 6 mps 759 mmHg 17%
    12:00 +39°C° 0 mm 7 mps 759 mmHg 16%
    13:00 +39°C° 0 mm 6 mps 759 mmHg 16%
    14:00 +39°C° 0 mm 6 mps 758 mmHg 16%
    15:00 +39°C° 0 mm 5 mps 758 mmHg 16%
    16:00 +37°C° 0 mm 4 mps 758 mmHg 18%
    17:00 +37°C° 0 mm 3 mps 758 mmHg 19%
    18:00 +36°C° 0 mm 2 mps 758 mmHg 21%
    19:00 +34°C° 0 mm 2 mps 759 mmHg 22%
    20:00 +32°C° 0 mm 2 mps 759 mmHg 23%
    21:00 +30°C° 0 mm 2 mps 759 mmHg 24%
    22:00 +30°C° 0 mm 2 mps 760 mmHg 25%
    23:00 +29°C° 0 mm 3 mps 760 mmHg 26%

    Day after tomorrow, 19 August, Monday

    Time Temperature Precipitation Wind Pressure Humidity
    00:00 +29°C° 0 mm 3 mps 760 mmHg 27%
    01:00 +28°C° 0 mm 2 mps 760 mmHg 29%
    02:00 +27°C° 0 mm 2 mps 761 mmHg 30%
    03:00 +27°C° 0 mm 1 mps 761 mmHg 31%
    04:00 +27°C° 0 mm 2 mps 761 mmHg 31%
    05:00 +27°C° 0 mm 3 mps 761 mmHg 31%
    06:00 +28°C° 0 mm 3 mps 761 mmHg 30%
    07:00 +30°C° 0 mm 4 mps 761 mmHg 27%
    08:00 +33°C° 0 mm 5 mps 762 mmHg 23%
    09:00 +35°C° 0 mm 6 mps 762 mmHg 20%
    10:00 +37°C° 0 mm 5 mps 762 mmHg 18%
    11:00 +39°C° 0 mm 5 mps 761 mmHg 16%
    12:00 +41°C° 0 mm 5 mps 761 mmHg 14%
    13:00 +41°C° 0 mm 5 mps 761 mmHg 14%
    14:00 +41°C° 0 mm 4 mps 761 mmHg 13%
    15:00 +41°C° 0 mm 4 mps 761 mmHg 13%
    16:00 +41°C° 0 mm 4 mps 761 mmHg 14%
    17:00 +39°C° 0 mm 3 mps 761 mmHg 16%
    18:00 +38°C° 0 mm 3 mps 761 mmHg 18%
    19:00 +36°C° 0 mm 3 mps 761 mmHg 19%
    20:00 +35°C° 0 mm 3 mps 761 mmHg 20%
    21:00 +34°C° 0 mm 3 mps 762 mmHg 21%
    22:00 +33°C° 0 mm 3 mps 762 mmHg 23%
    23:00 +31°C° 0 mm 3 mps 762 mmHg 25%

    20 August, Tuesday

    Time Temperature Precipitation Wind Pressure Humidity
    00:00 +30°C° 0 mm 4 mps 762 mmHg 26%
    01:00 +30°C° 0 mm 3 mps 762 mmHg 28%
    02:00 +29°C° 0 mm 3 mps 762 mmHg 29%
    03:00 +28°C° 0 mm 2 mps 762 mmHg 30%
    04:00 +28°C° 0 mm 2 mps 762 mmHg 31%
    05:00 +29°C° 0 mm 1 mps 762 mmHg 32%
    06:00 +29°C° 0 mm 1 mps 762 mmHg 33%
    07:00 +31°C° 0 mm 1 mps 762 mmHg 29%
    08:00 +33°C° 0 mm 1 mps 763 mmHg 25%
    09:00 +33°C° 0 mm 0 mps 763 mmHg 21%
    10:00 +36°C° 0 mm 1 mps 762 mmHg 19%
    11:00 +37°C° 0 mm 1 mps 762 mmHg 17%
    12:00 +39°C° 0 mm 2 mps 762 mmHg 16%
    13:00 +39°C° 0 mm 2 mps 762 mmHg 15%
    14:00 +40°C° 0 mm 1 mps 761 mmHg 14%
    15:00 +40°C° 0 mm 1 mps 761 mmHg 13%
    16:00 +40°C° 0 mm 1 mps 761 mmHg 15%
    17:00 +39°C° 0 mm 1 mps 761 mmHg 17%
    18:00 +37°C° 0 mm 1 mps 760 mmHg 19%
    19:00 +37°C° 0 mm 2 mps 761 mmHg 20%
    20:00 +35°C° 0 mm 2 mps 761 mmHg 20%
    21:00 +34°C° 0 mm 3 mps 761 mmHg 21%
    22:00 +33°C° 0 mm 4 mps 761 mmHg 30%
    23:00 +30°C° 0 mm 5 mps 761 mmHg 39%

    21 August, Wednesday

    Time Temperature Precipitation Wind Pressure Humidity
    00:00 +29°C° 0 mm 6 mps 761 mmHg 48%
    01:00 +28°C° 0 mm 6 mps 761 mmHg 51%
    02:00 +27°C° 0 mm 7 mps 761 mmHg 55%
    03:00 +27°C° 0 mm 7 mps 761 mmHg 58%
    04:00 +26°C° 0 mm 6 mps 762 mmHg 59%
    05:00 +26°C° 0 mm 6 mps 762 mmHg 60%
    06:00 +24°C° 0 mm 6 mps 762 mmHg 62%
    07:00 +27°C° 0 mm 6 mps 762 mmHg 56%
    08:00 +28°C° 0 mm 6 mps 762 mmHg 50%
    09:00 +29°C° 0 mm 6 mps 763 mmHg 44%
    10:00 +30°C° 0 mm 6 mps 762 mmHg 39%
    11:00 +33°C° 0 mm 6 mps 762 mmHg 34%
    12:00 +34°C° 0 mm 6 mps 762 mmHg 29%
    13:00 +34°C° 0 mm 6 mps 762 mmHg 29%
    14:00 +34°C° 0 mm 6 mps 762 mmHg 29%
    15:00 +35°C° 0 mm 6 mps 762 mmHg 28%
    16:00 +34°C° 0 mm 6 mps 762 mmHg 32%
    17:00 +33°C° 0 mm 6 mps 762 mmHg 35%
    18:00 +32°C° 0 mm 6 mps 762 mmHg 39%
    19:00 +30°C° 0 mm 5 mps 762 mmHg 42%
    20:00 +29°C° 0 mm 5 mps 762 mmHg 46%
    21:00 +28°C° 0 mm 5 mps 762 mmHg 50%
    22:00 +27°C° 0 mm 4 mps 762 mmHg 53%
    23:00 +26°C° 0 mm 4 mps 762 mmHg 56%

    22 August, Thursday

    Time Temperature Precipitation Wind Pressure Humidity
    00:00 +25°C° 0 mm 4 mps 762 mmHg 58%
    01:00 +25°C° 0 mm 4 mps 762 mmHg 62%
    02:00 +23°C° 0 mm 4 mps 762 mmHg 66%
    03:00 +23°C° 0 mm 4 mps 762 mmHg 69%
    04:00 +23°C° 0 mm 4 mps 762 mmHg 70%
    05:00 +23°C° 0 mm 4 mps 762 mmHg 71%
    06:00 +23°C° 0 mm 5 mps 762 mmHg 72%
    07:00 +25°C° 0 mm 5 mps 762 mmHg 65%
    08:00 +27°C° 0 mm 5 mps 762 mmHg 58%
    09:00 +29°C° 0 mm 5 mps 762 mmHg 51%
    10:00 +30°C° 0 mm 5 mps 762 mmHg 45%
    11:00 +33°C° 0 mm 5 mps 762 mmHg 39%
    12:00 +34°C° 0 mm 5 mps 762 mmHg 33%
    13:00 +35°C° 0 mm 5 mps 762 mmHg 31%
    14:00 +35°C° 0 mm 5 mps 761 mmHg 29%
    15:00 +36°C° 0 mm 5 mps 761 mmHg 27%
    16:00 +35°C° 0 mm 5 mps 761 mmHg 28%
    17:00 +35°C° 0 mm 4 mps 761 mmHg 29%
    18:00 +34°C° 0 mm 4 mps 761 mmHg 30%
    19:00 +33°C° 0 mm 4 mps 761 mmHg 32%
    20:00 +32°C° 0 mm 4 mps 761 mmHg 34%
    21:00 +29°C° 0 mm 4 mps 761 mmHg 37%
    22:00 +29°C° 0 mm 4 mps 762 mmHg 38%
    23:00 +28°C° 0 mm 4 mps 762 mmHg 39%
    Show more